Gefundene Sportergebnisse Reiter: Klaus HERNLER (AUT)

hoeveler tierfutter
Benutzerdefinierte Suche


Teilnahme von

Klaus HERNLER (AUT)


an Turnieren
 


 www.reitturnier-news.de

Gesucht wurde in reitturnier-news.de nach:


Reiter Pferde Ort
28.07 10:15:15 Schmuck, Mariella28.07 10:15:32 Bel Ami FR AA28.07 10:14:17 ratingen
28.07 10:15:13 Krzyzanowski, Patricia28.07 10:15:27 Assaros28.07 10:14:08 ranshofen
28.07 10:15:03 Frey, Valentina Marie28.07 10:15:13 Petit Isanny Dee28.07 10:13:58 Reit toinir
28.07 10:14:57 bundesmann, cara28.07 10:15:13 Wondergirl 1428.07 10:13:42 Gladenbach
28.07 10:14:57 Apeler,28.07 10:15:12 Lunkes Hof-Sarabi28.07 10:13:25 zierow
28.07 10:14:54 Riedel, Jasmin28.07 10:15:03 George Best28.07 10:13:11 Utze
28.07 10:14:45 Selmeier, Marina28.07 10:14:36 Taluna 228.07 10:13:02 kirlach
28.07 10:14:32 Vahldieck, Dana Nathalie28.07 10:14:08 walkeman28.07 10:12:44 steinen
28.07 10:14:26 Backhaus, Adriane28.07 10:14:08 jurando28.07 10:12:28 pferdeland
28.07 10:14:18 valerie westbomke28.07 10:13:58 Carthani W28.07 10:12:26 Wahlsdorf-Liepe
28.07 10:14:04 Pielken, Christiane28.07 10:13:56 Goldmarie28.07 10:12:16 Plettenberg-Ohle
28.07 10:14:04 Niels van Brouwershaven28.07 10:13:55 Vux28.07 10:11:57 Bösingen-Herrenzimmern
28.07 10:13:58 Veit, Volker28.07 10:13:31 So What a Feeling28.07 10:11:14 Hanerau-Hademarschen
28.07 10:13:56 Mouret, Lavinia28.07 10:13:27 last minute 428.07 10:09:43 kreireiterball wintwerfeld
28.07 10:13:49 Schwenn, Geraldine28.07 10:13:02 Quantas-Girl28.07 10:09:34 Warendorf-freckenhorst
28.07 10:13:32 Christopher HICKEY (USA)28.07 10:13:00 Aretino 1228.07 10:08:57 katzheide e.V
28.07 10:13:27 Thienel, Arlett28.07 10:12:55 Biscaya 5028.07 10:08:53 Morsbach-Erblingen
28.07 10:13:24 Lavinia Mouret28.07 10:12:41 Kallistus 328.07 10:08:51 Hallenturnier Niederkr
28.07 10:13:03 Paul, Marion28.07 10:12:28 De La Luna 1528.07 10:08:47 parsdorf
28.07 10:13:01 Laatsch,28.07 10:12:26 my turn28.07 10:08:45 Hof-Haidt/Ofr
28.07 10:13:00 Osvaldo28.07 10:12:25 Le bon choix28.07 10:08:16 PSG
28.07 10:12:59 Katharine COADY (CAN)28.07 10:12:22 expirience28.07 10:08:12 Reittunier Rastede
28.07 10:12:26 Yurij28.07 10:12:18 Loxana 228.07 10:08:01 Dornermühle
28.07 10:12:25 Wegner, Carolin28.07 10:12:15 Sissi 54328.07 10:07:46 Köln-Roggendorf
28.07 10:12:14 ploghaus, pia28.07 10:12:03 Estroil28.07 10:07:40 meppen
28.07 10:12:07 Moroschan, Sandra28.07 10:12:00 Pico Grande 128.07 10:07:10 kreisjugendturnier
28.07 10:12:02 Musche, Manuela28.07 10:11:35 Agua28.07 10:07:05 heidelberg-rohrbach
28.07 10:11:44 ALAIN BRUNO (FRA)28.07 10:11:34 Colanda28.07 10:06:01 05.05.2013
28.07 10:11:39 Jerchel Anne-Katrin28.07 10:11:27 godiness28.07 10:05:53 Basthorst
28.07 10:11:12 Tanja Herk-Dykta28.07 10:11:19 Singapur 1728.07 10:04:22 RuF Hüttenberg
28.07 10:11:04 Altenkirch, Luise28.07 10:11:12 Panatoli28.07 10:03:10 Warka
28.07 10:10:51 Bussmann, Lydia28.07 10:11:05 White Foot28.07 10:02:56 kampe
28.07 10:10:22 bomberg28.07 10:10:57 Coup28.07 10:02:55 rosendahl
28.07 10:10:02 Dosoudie,28.07 10:10:47 Forino 428.07 10:02:50 Gahlenreitturnier-news.de
28.07 10:09:57 Kroker,28.07 10:10:23 chapoclap28.07 10:02:48 Mögglingen
28.07 10:09:45 Staudenmeyer, Corinna28.07 10:10:10 salino28.07 10:02:25 Kempersh
28.07 10:09:42 Berndt, Lothar28.07 10:10:06 Liam Lee28.07 10:02:11 Klettgau-bühl
28.07 10:09:28 Kemiläinen, Satu Marianna28.07 10:09:52 Lovalo28.07 10:01:52 taubenberg
28.07 10:09:25 Schwarz, Raphael Tizian28.07 10:09:32 Houben28.07 10:01:52 Riedrode
28.07 10:09:17 Pleunis,28.07 10:09:27 Airtravel28.07 10:01:28 waldshut
28.07 10:09:09 Sarah Gratzfeld28.07 10:09:17 Tempest Dance28.07 10:01:27 Rheda-Wiedenbr
28.07 10:09:02 Gra28.07 10:09:12 Don Larina 328.07 10:00:01 Leinfelden-Echterdingen
28.07 10:09:01 Köppel, Alke Katharina28.07 10:09:01 Luz de la Luna28.07 09:59:58 loeningen
28.07 10:08:52 Gasmi,28.07 10:08:42 ribeau28.07 09:59:55 RS
28.07 10:08:47 Krützmann, Maike28.07 10:08:37 True Light28.07 09:59:49 Verl
28.07 10:08:39 Thomas CARLILE (FRA)28.07 10:08:36 Mikoma28.07 09:59:25 reiterall
28.07 10:08:36 bernhard winkel28.07 10:08:05 Scalinger28.07 09:59:22 Ulrichshorst/Insel Usedom
28.07 10:08:33 Marc Bergmann28.07 10:08:03 halligalli28.07 09:59:21 blowatz
28.07 10:08:28 Bicker, Helena28.07 10:07:39 graffellino28.07 09:58:57 leichlingen 2010
28.07 10:08:20 Perl, Elisa28.07 10:07:37 Red Pitt28.07 09:58:47 Zeiteinteilung Turnier
28.07 10:08:18 Drittler, Lara28.07 10:07:23 Clearwather28.07 09:58:31 Ennigerloh-Neubeckum
28.07 10:08:14 Kammerer, Martina28.07 10:06:27 Sir Chocolate28.07 09:57:51 Ludwigsburg-Monrepos
28.07 10:08:01 Tödtmann, Jan-Oliver28.07 10:06:25 Prikoli28.07 09:57:46 Reitturnier Dierdorf
28.07 10:07:56 Kolke,28.07 10:06:10 Tercie28.07 09:56:44 bersenbr
28.07 10:07:52 Eckert, Patrick28.07 10:06:05 Faridee28.07 09:56:08 vs-weilersbach
28.07 10:07:47 Hascher, Nicole28.07 10:05:57 Quentino 1628.07 09:54:45 dormagen dellhoven
28.07 10:07:37 Evraert, Saskia28.07 10:05:48 Lorina 8828.07 09:54:37 schwegenehim
28.07 10:07:35 Ottenberg, amelie28.07 10:05:06 Zoietagain28.07 09:54:03 reitstall potthoff
28.07 10:07:31 Diestler, Lisa Charlene28.07 10:04:57 La noir Luna28.07 09:53:08 Brookmerland
28.07 10:07:24 Kothe , Martina28.07 10:04:44 nordwind28.07 09:52:50 turnier ergebnisse
28.07 10:07:24 Ulrike PÖHLS (GER)28.07 10:04:10 Paritj28.07 09:51:57 Hofgeismar
28.07 10:07:14 Kritz, Katja28.07 10:03:50 joshi28.07 09:51:34 Grefrath -
28.07 10:07:07 Wulff, Sarah28.07 10:03:25 Championesse-T28.07 09:50:38 traisa 2010
28.07 10:07:00 harriet kraft28.07 10:03:23 Sun Patriano28.07 09:50:04 dortmund-sonborn
28.07 10:06:58 Viktoriya28.07 10:03:02 Coconut Kiss 1028.07 09:49:42 meinsen 2011
28.07 10:06:54 Kirchner28.07 10:02:58 El Dorado 7328.07 09:49:37 turnier sögel
28.07 10:06:50 weber,28.07 10:02:52 herbstnacht 528.07 09:49:32 Wespen
28.07 10:06:43 Sirges, Jan-Philipp28.07 10:02:50 Magycicada28.07 09:49:08 Karlstein-Großwelzheim/Ufr.
28.07 10:06:33 peter r28.07 10:01:53 Hannes 9628.07 09:48:59 Altentr
28.07 10:06:30 Klinkhammer, Ute28.07 10:01:52 Delia 11428.07 09:48:51 unterperfuss
28.07 10:06:29 Simon, Michaela28.07 10:00:43 Kampo Santana28.07 09:48:45 12.05.2013
28.07 10:06:25 Stern, Marina28.07 10:00:16 Xena Chantee28.07 09:48:40 sankt
28.07 10:06:15 seyberth28.07 09:59:59 Schierensees Don t do28.07 09:48:34 freckenhorst
28.07 10:06:04 Sloothaak28.07 09:59:56 brooks husar28.07 09:48:23 spenge wallenbrück
28.07 10:05:50 Raß, Sarah28.07 09:59:54 chevalle s28.07 09:48:20 turni
28.07 10:05:44 Schulze, Franziska28.07 09:59:53 Pamira28.07 09:46:37 Bernkastel-Kues
28.07 10:05:37 platter, justine28.07 09:59:53 celina niedenzu28.07 09:46:28 Hallenturnier Niederkrüchten
28.07 10:05:32 sabrina knau28.07 09:59:50 Zico V28.07 09:46:10 Kalthauser Höhe
28.07 10:05:31 VANESSA AVANZINI28.07 09:59:48 quite acatenago28.07 09:45:59 holzerode
28.07 10:05:30 Nita EDWARDS (NZL)28.07 09:59:23 Wolawian28.07 09:45:33 Mainz Hechtheim
28.07 10:05:24 Walch, Svenja28.07 09:59:23 miss chanelli28.07 09:45:18 alfter
28.07 10:05:22 Höckh, Tanja28.07 09:59:20 Samiro 728.07 09:43:31 wilschdorf 2012
28.07 10:05:17 Henkenius, Kerstin28.07 09:58:55 Beltoni 228.07 09:41:37 Springreiterwettbewerb in
28.07 10:05:10 Malin,28.07 09:58:39 Ronay St28.07 09:40:47 Bissendorf -
28.07 10:05:03 Buchst28.07 09:58:31 Welfen28.07 09:40:42 Mühlentgeez
28.07 10:04:58 Ridderbusch, Susanne28.07 09:58:28 Don Dietrich28.07 09:39:18 Mörtitz
28.07 10:04:57 Weber, Jule28.07 09:58:19 Nachtw28.07 09:38:33 arnsberg-vosswinkel
28.07 10:04:56 Paul HART (RSA)28.07 09:57:50 Cloude Dancer28.07 09:37:57 Großenkneten
28.07 10:04:54 HELEN HAYN (USA)28.07 09:57:49 Cassius von Nymphenburg28.07 09:37:42 BAD
28.07 10:04:50 Weichold,28.07 09:57:44 Vanessa 23428.07 09:37:37 Nördlingen/Schw.
28.07 10:04:37 Westermann, Ines28.07 09:57:33 Winzerk28.07 09:37:36 freispringen ostenland
28.07 10:04:27 Ahrens, Lisa28.07 09:56:44 Lucy Lou 428.07 09:37:26 Sindelfingen 2011
28.07 10:04:24 Barisch, Fabienne28.07 09:55:40 Alkaccini28.07 09:36:45 Neus Hilgershof
28.07 10:04:23 Sechi, Laura28.07 09:55:26 Celano 1228.07 09:36:10 SCHWANHEIM
28.07 10:04:17 lena dittrich28.07 09:54:50 Ibrys28.07 09:36:06 reuthen
28.07 10:04:03 philipp h28.07 09:54:39 winnie puh28.07 09:36:05 rv brakel
28.07 10:03:57 Stecher, Ronja28.07 09:54:37 sambuka28.07 09:35:35 Bad Homburg
28.07 10:03:44 Emma ARMSTRONG (AUS)28.07 09:54:31 Matula28.07 09:35:15 kreismeisterschaft riesenbeck
28.07 10:03:43 Jaqueline Schelling28.07 09:54:07 Cornelius 2928.07 09:35:15 lübeck-wulfsdorf,ergebnisse
28.07 10:03:30 Gems, Nina28.07 09:53:34 Kalli28.07 09:35:11 Stuhr steller
28.07 10:03:30 Kirsche, Samantha28.07 09:53:19 caphira28.07 09:35:10 höven2014
28.07 10:03:29 Hammermann, Michaela28.07 09:53:05 Best Before Midnight28.07 09:34:50 hohenloher reitevent
28.07 10:03:03 Schmitt, Jana28.07 09:52:54 Fenix de River28.07 09:34:11 wollmar-münchhausen
28.07 10:02:55 Engl, Johanna28.07 09:52:30 Rousseau 4428.07 09:34:11 Wermelskirchen
28.07 10:02:52 Hetzler, Ciara28.07 09:52:05 Franz-Ferdinand 228.07 09:33:50 ausschreibung reitertag
28.07 10:02:50 kampmann28.07 09:51:53 Esparto28.07 09:33:34 31633 leese
28.07 10:02:43 Michelberger, Isabelle28.07 09:51:32 Cantano 1528.07 09:33:02 Westfalenwoche
28.07 10:02:36 Arras, Angelika28.07 09:51:30 Carnute 228.07 09:33:00 Hengstschau
28.07 10:02:34 Tanzer, Raphaela28.07 09:50:50 Cando 328.07 09:32:42 Grabow /
28.07 10:02:20 dänekas marek28.07 09:50:48 Daydream 6928.07 09:32:27 www.rv-sonsbeck.de
28.07 10:01:59 Wendt, Fabiene28.07 09:50:41 Occident28.07 09:31:57 bratislava
28.07 10:01:54 Schira,28.07 09:50:39 Castina28.07 09:31:28 Büren
28.07 10:01:29 Leitner28.07 09:50:28 Don Walesko 228.07 09:31:26 Tangstedt/Pinneberg
28.07 10:01:11 Gabelt, Clarissa28.07 09:50:21 Calixto 228.07 09:31:22 Weißenburg
28.07 10:01:03 daniela fink28.07 09:50:12 light motion28.07 09:30:31 bottrop
28.07 10:00:51 Nerl,28.07 09:50:15 Patmoss28.07 09:30:20 ponyclub
28.07 10:00:30 Gerick, Viola28.07 09:49:32 kortina s28.07 09:29:40 springen l
28.07 10:00:20 Benschus28.07 09:49:29 ferrari28.07 09:29:28 Meckelfeld
28.07 10:00:02 Altag, Julia28.07 09:49:04 Rock Rose 228.07 09:29:26 bippen
28.07 09:59:53 Jouck, Caroline28.07 09:48:31 caro de fuyssieux28.07 09:29:15 Fuchsenhof
28.07 09:59:52 Kirsty SHORT (GBR)28.07 09:48:15 Thys 328.07 09:28:35 Klein Roscharden
28.07 09:59:51 Kobas, Stephanie28.07 09:47:50 Soliman Deluxe28.07 09:28:16 kutenhoz
28.07 09:59:28 Lustig, Andrea28.07 09:47:50 Chateau B28.07 09:28:11 class
28.07 09:59:27 Keseberg,28.07 09:47:17 Weltana 928.07 09:28:05 leipzig
28.07 09:59:25 Feldmann, Kassandra28.07 09:46:55 Ustinov28.07 09:27:44 Riesenbeck
28.07 09:58:53 stefanie hohloch28.07 09:46:40 Anna-Calypso28.07 09:27:49 Losheim
28.07 09:58:37 Nienaber, Linda28.07 09:46:31 Lomitas 2228.07 09:27:48 Bobersen
28.07 09:58:31 jasmin wöhning28.07 09:46:30 Wertino28.07 09:27:36 Dallgow
28.07 09:58:09 Dorthe CHRISTENSEN (DEN)28.07 09:45:32 se.m. don giovanni28.07 09:27:30 Lamspringe
28.07 09:58:05 valentin werz28.07 09:45:29 Charly Braun28.07 09:27:21 dornerm
28.07 09:58:04 siegler, pia malin28.07 09:45:29 Riana28.07 09:27:19 Rohlsdorfer Beek
28.07 09:58:02 Karin Pithard-Wenzel28.07 09:45:21 Dunkle Dame28.07 09:27:18 Tasdorf
28.07 09:57:40 Lara Gr28.07 09:45:17 Campari 27628.07 09:27:07 elmlohe 09
28.07 09:57:36 romina hoyzer28.07 09:44:52 Donar 23228.07 09:26:16 Herdwangen-Oberndorf
28.07 09:57:30 Lesizza, Elisabetta28.07 09:44:50 Cassi Go 228.07 09:24:33 reitturnier hittbergen
28.07 09:57:27 Scholz, Janina28.07 09:44:32 Cadeau 3528.07 09:23:52 grasberg-w
28.07 09:57:16 Tigges, Isabell28.07 09:44:30 Shaddow of Severloh28.07 09:23:44 grafenrheinfeld
28.07 09:57:08 Vesley, Luana28.07 09:43:51 Cris Crock28.07 09:23:27 Neukirchen Vluyn
28.07 09:56:59 Bisgiel, Nadine28.07 09:43:41 salmi caramel28.07 09:23:15 Muggensturm 2011
28.07 09:56:49 Dior Style28.07 09:43:33 Welser s Red Flash28.07 09:23:12 Filsum ergebnisse
28.07 09:56:10 carolin heil28.07 09:43:24 Diamant D Elegance28.07 09:23:10 reitturnier scharnebeck
28.07 09:56:07 Rene ALVAREZ (CHI)28.07 09:42:58 Lastic 328.07 09:22:52 vlotho valdorf
28.07 09:55:54 rene sontag28.07 09:42:56 Warthos28.07 09:22:37 RC Wahlwies
28.07 09:55:39 janna lass28.07 09:42:42 Anne Gretl28.07 09:21:49 Aurich-Wallinghausen
28.07 09:55:25 Walter, Anna-Lena28.07 09:42:32 Zou Zou28.07 09:21:36 fautenbleau
28.07 09:54:48 tress, jochen28.07 09:42:19 incognita 228.07 09:21:20 willicher dressurtage
28.07 09:54:44 Schumacher, Tatjana28.07 09:42:10 Camaro 9828.07 09:21:09 RC Altenheim
28.07 09:54:43 duchac,roman28.07 09:42:09 Wynton28.07 09:20:57 reittunier arnsberg-Holzen
28.07 09:54:42 Schlief, Carina28.07 09:42:03 crazy crokodile28.07 09:19:29 Lastrup-Hamstrup
28.07 09:54:42 Laumanns, Julian28.07 09:41:41 Elphicks Facade (Titus)2541428.07 09:18:53 Mücke-Atzenhain
28.07 09:54:41 Herzog, Fabian28.07 09:41:37 Rambo28.07 09:16:53 kapellerfeld
28.07 09:54:41 Palm, Julia28.07 09:41:35 Robin von Lochsley28.07 09:14:50 Gütersloh-Spexard
28.07 09:54:38 Kuliber, Steffi28.07 09:41:31 Amalthea28.07 09:14:34 Osterode
28.07 09:54:35 Heupgen, Laura28.07 09:41:07 sempre-Si28.07 09:14:09 bremen huchtingen
28.07 09:54:22 Ibrar Hussain Mohd FEROZ28.07 09:40:57 Ginella28.07 09:13:12 lippborg unterberg
28.07 09:54:17 Drowe, Kira28.07 09:40:55 Kastello 1928.07 09:12:28 Oberhochstatt/Mfr
28.07 09:54:08 kettner28.07 09:40:44 Stacudo Prinz28.07 09:11:49 Kastrup
28.07 09:53:21 Hirschheid, Hans-Christian28.07 09:40:09 Enjoy 9728.07 09:10:53 Krefeld 25.12.2012
28.07 09:52:28 Cardona, Sharon28.07 09:39:47 scivias28.07 09:10:26 reitturnier ahlen
28.07 09:52:28 Cardona, Kristina28.07 09:39:28 pacca o de l28.07 09:10:19 pirmasens-winzeln
28.07 09:52:13 Kühl, Alina28.07 09:39:26 Canyon 2628.07 09:09:56 Turnier Singham
28.07 09:51:46 Heine, Felicitas28.07 09:39:20 Boca Junior28.07 09:09:34 Elmlohe
28.07 09:51:40 schmauser, antonia28.07 09:39:01 weltstern 2128.07 09:09:17 2. und
28.07 09:51:31 Tong, Gaelle28.07 09:38:32 Joker Millenium28.07 09:08:38 altenkirchen 2012
28.07 09:51:08 Jenau, Manuela28.07 09:38:07 Lalamika28.07 09:08:21 Furpach
28.07 09:51:03 Nicole bustert28.07 09:37:56 Robinson Crouso28.07 09:07:36 reitturnier vo
28.07 09:50:50 Larissa HANSFORD (GBR)28.07 09:37:45 Chicka-Chacka Mucki-Mausi28.07 09:07:33 NEU -
28.07 09:50:49 Kurras, Friederike28.07 09:37:36 Domingo 63128.07 09:07:13 böhnstadt
28.07 09:50:44 denis rieger28.07 09:37:30 Cannelloni 228.07 09:06:54 Timmendorf
28.07 09:50:40 Geske, Vanessa28.07 09:37:28 no Limit2728.07 09:06:13 pels
28.07 09:50:40 Wrede, Ina28.07 09:37:28 Don Enrico v.B.28.07 09:05:19 reitturnier pfungstadt
28.07 09:50:36 denin, almut28.07 09:37:28 antonietta28.07 09:04:15 07381
28.07 09:50:31 Kratzberg, Konstantin28.07 09:37:25 Galanka28.07 09:04:07 radegast
28.07 09:50:18 Leusmann,28.07 09:37:15 florian 47128.07 09:03:40 22.06.2012
28.07 09:50:04 dirk b28.07 09:37:01 Antigua 2028.07 09:03:31 daun 2004
28.07 09:50:03 Knorz,Corinne28.07 09:36:55 everybodys darling 228.07 09:02:55 kiel melsdorf
28.07 09:49:59 Zschoch, Barbara28.07 09:36:51 Cassano 1628.07 09:02:23 sonnenb
28.07 09:49:57 Roggenkmper, Svenja Janine28.07 09:36:50 Wolkenkratzer28.07 09:01:55 Reitverein Hülsmann
28.07 09:49:46 Maisch,Corinna28.07 09:36:44 Goerlitz28.07 09:01:22 Herdecke ende
28.07 09:49:22 dirk böttcher28.07 09:36:42 chrispelino28.07 09:00:37 Mainz-Bretzenheim
28.07 09:49:24 Ruess,Anja28.07 09:36:41 Addinally STEF28.07 09:00:09 Flandersbach
28.07 09:49:13 Kogenschott, Stephanie28.07 09:36:36 pretty power28.07 09:00:07 Sontheim/Brenz
28.07 09:49:05 Peters, Elena28.07 09:36:32 Roxette Moir28.07 09:00:04 dorzmund-süd
28.07 09:48:41 Schlüter, Anna - Lisa28.07 09:35:59 Golden Gatsby28.07 09:00:01 Velen
28.07 09:48:30 ANDR28.07 09:35:54 Lavinci 228.07 08:59:49 Laucha
28.07 09:48:28 Schmidt,Axel28.07 09:35:40 ready to fly28.07 08:59:33 RV Aldekerk
28.07 09:48:10 Schmickler, Ron-Caprice28.07 09:35:37 Faibl28.07 08:59:21 turnier uedesheim
28.07 09:48:01 Brahms, Greta28.07 09:35:36 rocco royal28.07 08:58:54 beek
28.07 09:47:54 cora maibaum28.07 09:35:35 al pacino 5728.07 08:58:41 3800
28.07 09:47:25 manja koppe28.07 09:35:25 Pedou28.07 08:57:33 Reitturnier Lohne
28.07 09:47:09 Kroll, Evelyn28.07 09:35:23 Emma Brown 228.07 08:57:09 neuss
28.07 09:47:09 Simon,Hugo28.07 09:34:59 Deborah 8128.07 08:57:08 Elmshorn Reitturnier
28.07 09:47:05 Maibaum-Nietfeld, Cora28.07 09:34:00 Vavola28.07 08:56:32 Quedlinburg
28.07 09:46:43 Stütz, Susann28.07 09:33:41 Serafino 1728.07 08:55:55 Stockumer Berg
28.07 09:46:32 Brunner, Christina28.07 09:33:36 Colisto28.07 08:55:49 Verbandsturnier Osnabr
28.07 09:46:22 Rohrmair, Theresa28.07 09:33:29 Diabolo de Lux28.07 08:54:54 berby
28.07 09:46:08 Martha THOMAS (GBR)28.07 09:32:14 Mondo28.07 08:54:24 Freunde
28.07 09:46:03 Katharina Ehrhorn28.07 09:32:07 Fidelgo van het Hagehof28.07 08:54:05 quadrille championat
28.07 09:46:01 Ryan Lee HARVEY (RSA)28.07 09:31:42 Bardot 328.07 08:53:06 BURGOBERBACH
28.07 09:46:01 Andrea DUMBRELL (AUS)28.07 09:31:33 Rivienna E28.07 08:52:42 Bremen(GER)
28.07 09:46:00 Braun, Sascha28.07 09:30:50 Vincent 11128.07 08:52:28 anreise
28.07 09:45:51 Stevens, Katrin28.07 09:30:45 madonna 15228.07 08:52:23 Frankfurter Reit
28.07 09:45:50 Christin KEEN (GER)28.07 09:30:41 Crocodile Rock xx28.07 08:51:47 fonteaunbl
28.07 09:45:49 Sohn,Marvin28.07 09:30:16 Ray of light 228.07 08:50:25 Stutenschau Verl
28.07 09:45:32 Kamer ADALALI (TUR)28.07 09:30:15 Chillypower28.07 08:50:24 wingst 2009
28.07 09:45:20 Heidi WOOD (RSA)28.07 09:30:14 sandokan 29028.07 08:49:30 Eggenfelden/Ndb.
28.07 09:45:20 Wilhem Anisha28.07 09:29:39 Monteros28.07 08:48:48 aach bodensee
28.07 09:44:44 Strohmeyer, Ann-Josephine28.07 09:29:36 Eolith 228.07 08:47:45 Ergebnisse Zeven
28.07 09:44:23 inga zwalina28.07 09:29:31 Basic28.07 08:47:43 reitturnier enniger
28.07 09:44:22 Ernst,Alexander28.07 09:29:11 Rosenk28.07 08:47:14 Lorsch
28.07 09:44:10 Kramer, Karina28.07 09:29:10 Ed Hardy 328.07 08:46:12 Halberstadt Spiegelsbergengut
28.07 09:43:59 Brewitt, Natascha28.07 09:29:09 Larouscha28.07 08:45:17 Auerbach/Opf.
28.07 09:43:41 lucapo28.07 09:28:47 Rockadero 428.07 08:44:58 hetzles
28.07 09:43:28 Fischer, Stefanie28.07 09:28:41 Lasanis28.07 08:44:24 Marpingen
28.07 09:43:30 Riad28.07 09:28:23 gloin28.07 08:43:27 wrr turnier
28.07 09:43:30 Schubert, Sarah28.07 09:28:17 Pik partout28.07 08:43:21 Heideck/Mfr.
28.07 09:43:23 Uhle, Annika28.07 09:28:13 Winsor 4128.07 08:43:17 reitturnier vellmar
28.07 09:43:19 bianca lühmann28.07 09:28:13 Immentals Baltic Sunset28.07 08:43:02 Taubenheim
28.07 09:43:19 Seppelfricke-Laarmann, Nicole28.07 09:28:01 Garantie T28.07 08:43:00 Stölln OT
28.07 09:43:16 jessica schmitt28.07 09:27:30 Vourazy28.07 08:42:44 riedrode 2012
28.07 09:43:14 Anna Kempfer28.07 09:27:20 Vanessa 25528.07 08:41:26 Reihne
28.07 09:42:45 Jänke, Pamela28.07 09:26:12 Miomopoli28.07 08:40:26 Harpstedt /
28.07 09:42:36 Thiele, Lisa-Michelle28.07 09:25:21 Franko 6128.07 08:39:51 Kamp Lintfort
28.07 09:42:21 lars lukat28.07 09:25:19 welfin28.07 08:39:49 Walchum-
28.07 09:42:05 Garve, Alexandra28.07 09:25:17 fenito 328.07 08:39:48 stuckenbrock
28.07 09:42:04 Mareike Klose28.07 09:25:11 Sherlocke Holmes28.07 08:39:38 bergatsreute-dobelm
28.07 09:42:00 Rostock,28.07 09:25:03 red rubin h28.07 08:39:32 rv kollmar
28.07 09:41:51 Peter, Angelina28.07 09:24:50 lektor28.07 08:39:27 Klattgau b
28.07 09:41:43 Geißel,Hartmut28.07 09:24:18 onno28.07 08:38:53 Schloß Pertenstein
28.07 09:41:33 Dernberger, Carina28.07 09:24:13 caprice 43528.07 08:38:44 Mastholte
28.07 09:41:10 Wagner, Erika28.07 09:24:02 Cumberland Jack28.07 08:38:37 Fleinhausen/Schw.
28.07 09:40:56 Stelter, Solveig28.07 09:23:54 alcanto 228.07 08:37:57 bronnweiler
28.07 09:40:46 Lunscken, Friederike-Inger28.07 09:23:26 Robespierre 4828.07 08:37:57 Holzgerlingen
28.07 09:40:35 Seidenspinner, Marie28.07 09:22:31 Dyamant R28.07 08:37:31 gardelgen
28.07 09:40:28 ricken, harald28.07 09:22:17 grandus 4528.07 08:37:20 ULRICHSTEIN
28.07 09:40:09 carola frey28.07 09:21:48 bosch, udo28.07 08:37:16 Stockach-Wahlwies
28.07 09:40:01 Sabrina Näffgen28.07 09:21:45 Washington DC 228.07 08:36:54 viesecke
28.07 09:39:46 Gei28.07 09:20:57 Miss Susi28.07 08:36:54 Kirch Mummdorf
28.07 09:39:44 Geißel,Elena28.07 09:20:42 reike28.07 08:34:46 reiterball trent
28.07 09:39:37 Bergsma, Andrea28.07 09:20:39 cartania power28.07 08:34:32 Turnierergebnisse Silberberghof
28.07 09:39:31 Straniak, Andrea28.07 09:20:36 Oliwny Gaj28.07 08:34:02 RÜSSELSHEIM -
28.07 09:39:27 frohn,28.07 09:20:35 Magic boy 2928.07 08:33:50 wechold-martfeld
28.07 09:39:10 Habersetzer, Katharina28.07 09:20:00 Da Vinci28.07 08:32:41 Darmstadt-Kranichstein
28.07 09:38:51 Vogt, Jessica28.07 09:19:45 East Side EWL28.07 08:32:31 tunier sellstedt
28.07 09:38:51 kim laura scheibe28.07 09:19:26 Dancing Rubina28.07 08:31:26 Waldbr
28.07 09:38:32 ANA MARIA ARANGO (COL)28.07 09:19:18 new boy28.07 08:31:09 Schweinfurt/Ufr
28.07 09:38:29 angelina Lindemann28.07 09:19:11 Stromboli 1828.07 08:31:05 BISCHOFSHEIM -
28.07 09:38:28 Kanke, Karen28.07 09:19:10 Thor 3928.07 08:31:02 Eppelheim
28.07 09:38:24 Moebius, Sarah28.07 09:19:03 Finesse 31628.07 08:30:31 felmerholz
28.07 09:38:11 Marina breuer28.07 09:18:47 Momo 12128.07 08:30:24 Gut Eggenhof/Mfr.
28.07 09:37:54 Kutta, Ann-Christin28.07 09:18:47 philipp28.07 08:28:53 Herzebrock-Clarholz
28.07 09:37:42 Talmon-Ruth, Sabine28.07 09:18:34 Bonito 34428.07 08:28:50 stemwede- drohne
28.07 09:37:24 anett b28.07 09:18:05 Pilou de Moulinet28.07 08:26:14 Rheda-Wiedenbrück
28.07 09:37:21 Undritz, Claudia28.07 09:17:16 horstfeldes anastasia28.07 08:25:54 horst m
28.07 09:37:20 heusser28.07 09:17:07 carla radiata28.07 08:25:48 Neuss-Grefrath
28.07 09:37:19 Mueller, Theresa28.07 09:16:49 Chequino28.07 08:25:43 grohme
28.07 09:37:10 Wichdorff, Ina von28.07 09:16:43 paul 60228.07 08:21:08 wolfsburg 2011
28.07 09:37:11 diana graf28.07 09:16:42 Wetterhexe 428.07 08:19:57 Hausturnier nsv,
28.07 09:37:08 stanslowski philipp28.07 09:16:12 Jules de Blonde28.07 08:19:31 reitturnier wolfstein
28.07 09:36:56 Nora-Dorrit Tranins28.07 09:16:01 Florestina28.07 08:19:23 Reitturnier Hechthausen
28.07 09:36:56 Nora Tranins28.07 09:15:43 Amadeus 69428.07 08:19:13 Basch
28.07 09:36:51 Poch, Sophie28.07 09:15:16 AK Lord Fronhof28.07 08:18:38 Singhofen
28.07 09:36:48 Markus Rainer28.07 09:14:52 dream star 328.07 08:18:30 Hof Bettenrode
28.07 09:36:40 Biehringer, Melanie28.07 09:14:52 Kaperis28.07 08:18:30 fel
28.07 09:36:37 Ritter, Jil Jale28.07 09:14:51 dean martin pferdepr28.07 08:18:21 Leutkirch-Haid
28.07 09:36:21 stephanie, weissleder28.07 09:14:44 Kilian28.07 08:17:28 deauville
28.07 09:36:14 Eggenweiler, Mara28.07 09:14:43 Chira Belle28.07 08:17:25 Baschütz
28.07 09:36:05 Leppert,28.07 09:14:41 Widukind Radnor28.07 08:17:09 Gummersbach
28.07 09:36:00 Koth , Stefanie28.07 09:14:40 Svea28.07 08:17:01 Pellheim Gerblhof
28.07 09:36:00 Michalewicz28.07 09:14:39 Coriandos - S28.07 08:16:53 Saggau
28.07 09:36:00 Schröder, Pia-Marie28.07 09:14:21 Amgio28.07 08:16:50 BECKUM
28.07 09:35:50 sabina treu28.07 09:13:53 Snow White 828.07 08:14:42 Tunier Uthm
28.07 09:35:36 Hidding, Anke28.07 09:13:51 raschid28.07 08:14:06 Barlo-Bocholt
28.07 09:35:35 Berndt, Alina28.07 09:13:12 Caillou K28.07 08:12:48 loga birum
28.07 09:35:31 Cordes, Christine28.07 09:13:06 Scaramuch28.07 08:12:25 Blühten
28.07 09:35:26 Schlierkamp-Voosen, Lea28.07 09:13:05 Sarah s Jade28.07 08:12:10 Lentzke -
28.07 09:34:57 Deneke, Birte28.07 09:12:17 landos lady28.07 08:12:06 Freudenberg
28.07 09:34:55 Fuchs, Meike28.07 09:12:16 welcome shamrock28.07 08:11:39 PSV Wolnzach
28.07 09:34:43 Thomas, Ilse28.07 09:12:10 gräfin nala28.07 08:11:21 Rendsburg klint
28.07 09:34:35 Buhles, Jasmin28.07 09:11:59 grandeur noir28.07 08:10:51 niederaichbac
28.07 09:34:29 michael leipold28.07 09:11:21 vlana28.07 08:10:08 ESCHWEGE
28.07 09:34:04 julia greiner28.07 09:11:20 Die Eine vF28.07 08:08:46 Greifenhain (Reithalle
28.07 09:34:02 Wienböker, Inka28.07 09:11:16 Rulena-Royale28.07 08:08:46 Reitturnier Wolfsburg
28.07 09:33:20 Löchert, Sabrina28.07 09:11:15 Liz Steiermark28.07 08:08:41 Reitturnierergebniss
28.07 09:33:08 Pittino, Ferdinand28.07 09:10:41 Dark Shadow 1828.07 08:08:39 jetttingen
28.07 09:33:05 mayer sonja28.07 09:10:32 Monello28.07 08:08:33 homburg
28.07 09:33:03 JUAN CRUZ BERMUDEZ AVILA28.07 09:10:30 Bourbon Whisky28.07 08:07:45 Radebeul
28.07 09:33:02 hendrik griese28.07 09:10:29 Rowena 1628.07 08:07:40 -1
28.07 09:33:01 Stockhausen, Caroline28.07 09:10:08 lucienne 2928.07 08:07:43 Kleinenbostel
28.07 09:32:39 Oppel, Linda28.07 09:09:51 Flagrant28.07 08:07:36 turnierlisgte k
28.07 09:32:30 Fanslau, Chiara28.07 09:09:50 schocolata28.07 08:07:29 2009
28.07 09:32:29 Anke HOYER (GER)28.07 09:09:44 Queensberry 228.07 08:07:28 Essenheim
28.07 09:32:13 annica hansen28.07 09:09:22 Mon fleuri28.07 08:07:22 Schlo
28.07 09:32:09 Disch, Alina Sophie28.07 09:09:21 Dakar 14228.07 08:06:45 Gundelfingen 2011
28.07 09:31:58 Stieglmaier, Felix28.07 09:09:12 Jeremy John Hale28.07 08:06:43 Fürstenberg
28.07 09:31:43 melanie gewich28.07 09:09:00 czardas cognac28.07 08:06:04 st hubertus-herne
28.07 09:31:42 Osman MOHD JAAFAR (MAS)28.07 09:08:27 Tornado VDL28.07 08:05:07 Remlingen
28.07 09:31:30 Nettekoven, Malin28.07 09:08:22 Calato Grundyman XX28.07 08:05:03 Groningen
28.07 09:31:18 Reiter, Vivien28.07 09:08:19 Sanacja 228.07 08:05:01 Rittbrock L
28.07 09:30:56 anna schelle28.07 09:08:16 edition h28.07 08:05:00 Diest
28.07 09:30:50 NICOLAS GARCIA PALACIOS (ESP)28.07 09:08:05 Rosenstolz 1628.07 08:04:45 Sedlitz
28.07 09:30:44 Forsberg Christoffer28.07 09:07:54 Navoy 628.07 08:04:34 Offingen/Schw
28.07 09:30:43 Bodewig, Robinson28.07 09:07:45 Palermo Primo28.07 08:03:54 Gut Hollern
28.07 09:30:42 Fricke, Fabia28.07 09:07:35 Luca Toni 2728.07 08:03:31 Niederkrüchten-Gützenrath
28.07 09:30:40 Leinert, Danja28.07 09:07:31 Woronesch 1728.07 08:03:13 lörrach
28.07 09:30:14 Reinhardt, Alexandra28.07 09:07:20 SAPHIR28.07 08:02:49 Simmerath-Kesternich
28.07 09:30:13 Kuhlen, Etiennette28.07 09:07:11 May Be 4928.07 08:02:32 richelsdorf zeiteinteilung
28.07 09:30:10 gospodarek piotr28.07 09:07:07 Reno 6728.07 08:02:23 Dornbergerheide
28.07 09:30:07 Galow, Ingeborg28.07 09:06:59 Navina28.07 08:02:03 reitturnier hammersbach
28.07 09:30:03 Alessa HENNINGS (GER)28.07 09:06:59 chris folly28.07 08:00:40 Heimkirchen
28.07 09:29:53 Wamser, Thomas28.07 09:06:55 Sacova28.07 08:00:40 Halftern
28.07 09:29:50 Hermann, Marlies28.07 09:06:55 zenobia 828.07 08:00:35 Erkrath-Hochdahl
28.07 09:29:25 Heuermann, Nele28.07 09:06:52 Lord Lancelot 528.07 07:59:02 Schwäbisch Hall
28.07 09:29:10 Hommel,28.07 09:06:45 Cambridge A28.07 07:58:33 empfingen
28.07 09:29:04 Hübner, Sarah Kay28.07 09:06:33 Wiwaro di cento28.07 07:58:08 Palma e
28.07 09:28:44 Schulmeyer, Sonia28.07 09:06:25 Saturday Morning28.07 07:57:59 Sontra
28.07 09:28:40 Frambach, Clara28.07 09:06:18 carwerio28.07 07:57:36 reitturnier steinheim
28.07 09:28:40 Gittel, Juliane28.07 09:05:51 Great Pleasure 1228.07 07:57:24 Kirchwalsede
28.07 09:28:32 Sarah Besold28.07 09:05:21 keep smiley28.07 07:57:16 Eon
28.07 09:28:29 Ru28.07 09:05:14 Manolitto28.07 07:56:38 Elmenhorst
28.07 09:28:15 Graf, Julia28.07 09:05:13 Excalibur 10528.07 07:56:35 Reitverein Weißenburg
28.07 09:28:11 Pamme, Julia28.07 09:05:09 Feiner Kerl 6928.07 07:55:52 Turnier L
28.07 09:28:11 Anja Granlien28.07 09:04:45 Bailando 2528.07 07:54:56 PANROD
28.07 09:28:06 isabell zierleyn28.07 09:04:41 Cosa Nostra 1028.07 07:53:43 Olfen-Vinnum
28.07 09:27:55 Laura Berninger28.07 09:04:18 Lucky Konkordia28.07 07:52:41 tuebingen
28.07 09:27:31 Wichmann, Helmut Rudolf28.07 09:04:12 Daily Sunrise 428.07 07:51:47 vielseitigkeit korte
28.07 09:27:30 Hoeppner, Maj28.07 09:03:56 Coolio28.07 07:49:30 altusried 2014d
28.07 09:27:30 Quadlfieg, Jackie28.07 09:03:41 fantast28.07 07:49:25 Hamminkeln br
28.07 09:27:28 Vera zelobowski28.07 09:03:41 Dorina 76628.07 07:48:46 bruchk
28.07 09:27:16 Smolczyk,Dahlia-Rosa28.07 09:03:39 Rotegg s Cayenne28.07 07:48:40 Damme Februar
28.07 09:27:13 Kraatz, Franz28.07 09:03:33 leonidas k28.07 07:48:24 Oldendorf (bei
28.07 09:27:08 Jolanda Dr28.07 09:03:28 Contendra 3128.07 07:48:11 05.07.2014 Reitturnier
28.07 09:27:02 Dötsch, Mathilde28.07 09:03:23 Collection28.07 07:47:35 wulkow
28.07 09:27:01 Reitturnier Langen28.07 09:02:44 Alila28.07 07:47:14 kutschturnir
28.07 09:26:53 Trommler, Peter28.07 09:02:28 Holsteins Daim28.07 07:46:40 hülsmann willich
28.07 09:26:49 Datschewski, Nele28.07 09:02:28 Don t Worry Be28.07 07:46:01 essingen 16.10.2010
28.07 09:26:38 Imme, Leo28.07 09:02:27 Carneval 2428.07 07:45:58 turnier witzmannsberg
28.07 09:26:21 Bogenreuther,28.07 09:02:26 Serafina Pekkala28.07 07:45:56 Berlin- Pichelsberg
28.07 09:26:04 Scharfe, Annemarie28.07 09:02:24 master28.07 07:45:29 Freden -
28.07 09:26:03 Gru28.07 09:02:23 santana28.07 07:45:17 Ganderkesee-Bergedorf
28.07 09:25:46 Fütterer Dr., Maximilian28.07 09:02:17 Streicher 228.07 07:45:12 Gross-Zimmern
28.07 09:25:17 Eitenm28.07 09:01:49 Congarde VF28.07 07:45:00 Turnier Knotte
28.07 09:25:12 Stephane FOURNIER (FRA)28.07 09:01:49 Lucia 8228.07 07:44:56 meldestelle bissendorf
28.07 09:25:06 Weber, Katharina28.07 09:01:38 Amarettino28.07 07:44:22 dressur und
28.07 09:25:04 Lüking, Claudia28.07 09:01:16 easy dancer 928.07 07:43:21 pfaffenhausen
28.07 09:25:01 Zepner, Andrea28.07 09:01:15 aga kahn28.07 07:42:51 reitturnier breitenburg
28.07 09:24:54 Ernstmeier-Breuner, Katrin28.07 09:00:56 siegfried 5428.07 07:41:49 vettweiss
28.07 09:24:46 Abdullah Hasan AL HAMMADI28.07 09:00:39 Continental28.07 07:41:48 Reitturnier Assamstadt
28.07 09:24:35 Koptein,28.07 09:00:27 elvaro van het elkenhof28.07 07:40:08 Gut Weiherhof
28.07 09:24:22 sandra böker28.07 09:00:17 Weltbeste28.07 07:39:11 Grasberg
28.07 09:24:21 Kessemeier,28.07 09:00:11 baby jane28.07 07:38:45 Turnier Saarburg
28.07 09:24:09 heiko derksen28.07 09:00:08 Celine 15228.07 07:38:32 grasleben 2012
28.07 09:24:07 Kubla, Kim Sophie28.07 09:00:04 Aircraft 828.07 07:38:31 Tunier Gut
28.07 09:23:56 Lergenm28.07 09:00:00 Elijah28.07 07:38:24 brockhöfe
28.07 09:23:54 Seibold, Nina28.07 08:59:54 landors dancer n28.07 07:38:21 Obernburg
28.07 09:23:51 Flemming, Mareen28.07 08:59:50 Rosanna 4328.07 07:38:19 Visselhövede
28.07 09:23:45 Fiesel,28.07 08:59:38 Attashe28.07 07:38:13 Bedburg-Hau
28.07 09:23:40 Boas, Alexandra Francesca28.07 08:59:33 Rotegg s Cocaine28.07 07:37:56 fohlenschau hohnstorf
28.07 09:23:38 Andrea D28.07 08:59:23 Lovely Dancing Queen28.07 07:37:31 Mainz-Finthen
28.07 09:23:32 Zydorek, Michaela28.07 08:59:10 cohiba28.07 07:37:06 Krefeld Kühnen
28.07 09:23:19 Stoll,Katharina28.07 08:59:05 RPM Let s Fly28.07 07:36:57 Luhmühlen
28.07 09:23:05 Pedro Francisco IBA28.07 08:59:03 Sure Lady28.07 07:36:45 LANGENSELBOLD -
28.07 09:23:05 PEDRO FRANCISCO SEGURA SANTOS28.07 08:58:52 avalon r28.07 07:36:45 münster handorf
28.07 09:23:04 hartwig bendel28.07 08:58:32 birkenhofs catura d28.07 07:36:14 ruf-pfungstadt
28.07 09:22:59 Victoria PYE (GBR)28.07 08:58:28 shaquille28.07 07:35:39 schömberg
28.07 09:22:57 Oertker,Theresa28.07 08:58:27 Questa B28.07 07:35:35 Badingen
28.07 09:22:49 noa sofie neumann28.07 08:58:10 Mailady 528.07 07:35:15 Ingolstadt-Hagau/Obb
28.07 09:22:47 angela quademechels28.07 08:57:59 Canzler28.07 07:35:06 Gut Bohmerhof-Wackersberg/Obb.
28.07 09:22:45 Föniger, Franziska28.07 08:57:46 Grand Cracker28.07 07:33:26 Karlsruhe
28.07 09:22:41 Haasler-Theede28.07 08:56:59 Whispering Jill28.07 07:33:10 Hildesheim- Marienburg
28.07 09:22:39 gesche janzarik28.07 08:56:49 Legolas 12628.07 07:32:04 borken 2013
28.07 09:22:39 Oertker, Theresa28.07 08:56:43 Louis d or 728.07 07:31:59 Turnier Kevelaer
28.07 09:22:36 Twickeler, Ute28.07 08:56:27 Welcome Magic28.07 07:31:33 Güglingen-Frauenzimmern
28.07 09:22:29 Pütz-Volger, Wybe Anette28.07 08:56:09 Debussy 1328.07 07:30:22 sahrendorf
28.07 09:22:24 jonas gr28.07 08:56:08 ravenna 36128.07 07:30:04 Bargstedt
28.07 09:22:18 Stefanie Schulze Buschoff28.07 08:55:47 Lord Mo28.07 07:29:54 Heidelberg Kirchheim
28.07 09:22:09 Pamela Pfeiff28.07 08:55:43 michelle sandbrink28.07 07:28:26 herford diebrock
28.07 09:21:56 Rump, Kathrin28.07 08:55:39 Ritter Eisenberg28.07 07:28:22 Alzenau-Michelbach/Ufr.
28.07 09:21:46 Abt, Tobias28.07 08:55:38 Wilhelmine28.07 07:27:49 Giersleben
28.07 09:21:43 Greiffert, Susanne28.07 08:55:27 Cool Cassay28.07 07:27:27 rv hubertus
28.07 09:21:43 Magdowski,28.07 08:55:09 Christmas 728.07 07:27:18 aalen fachsenfeld
28.07 09:21:42 andre schulze hobbeling28.07 08:55:08 whitby28.07 07:27:16 rv Keppeln
28.07 09:21:41 Sanzenbacher, Katharina28.07 08:55:05 Cascada 3528.07 07:27:04 osnabrück
28.07 09:21:31 hamester28.07 08:55:02 Rasputin 25828.07 07:27:03 turnier honings
28.07 09:21:22 Mollenhauer, Merret28.07 08:54:45 Tony Torpedo28.07 07:27:02 Starterlisten
28.07 09:20:57 Lommer, Guliana28.07 08:54:23 Rubinca28.07 07:26:07 waldaxhtal
28.07 09:20:54 Oppfermann, Gisele28.07 08:54:17 colmar28.07 07:25:48 Turnier Magdalenenhof
28.07 09:20:45 schewe, andreas28.07 08:53:50 Spiderman 528.07 07:25:40 reitturnier herfart
28.07 09:20:43 Mehring,28.07 08:53:44 Bernardo 1528.07 07:25:27 St. Jürgen
28.07 09:20:27 Thaden, Maria Carina28.07 08:53:37 Anka28.07 07:25:21 tunier Aschen
28.07 09:20:18 MATEO OLIVAS (URU)28.07 08:53:29 Ach h28.07 07:25:18 dersum
28.07 09:20:17 Assen, Celina von28.07 08:53:25 Corona 5128.07 07:25:05 turnier mitterfels
28.07 09:20:06 Gwosdz, Vanessa28.07 08:53:01 rabas westfale28.07 07:24:54 Stangerode
28.07 09:19:59 Aillaud,28.07 08:52:18 Calvin Klein 328.07 07:24:52 Sandbostel
28.07 09:19:54 Cornelia SCHIMMEL (SUI)28.07 08:52:07 singold28.07 07:24:41 Dorfchemnitz
28.07 09:19:49 SV Schulzendorf e.V.Abt.Pferdesp28.07 08:51:33 Emilia 1728.07 07:24:28 Göttingen-Holtensen
28.07 09:19:41 kea tuitje28.07 08:51:23 La-Una28.07 07:24:11 Damme 2012
28.07 09:19:04 Fregona, Andrea28.07 08:50:32 laluna 5228.07 07:24:00 Essen-Steele-Horst
28.07 09:18:57 Marina KÖHNCKE (GER)28.07 08:50:31 Little John 3628.07 07:23:55 Kreuzkrug
28.07 09:18:54 Millius, Antonia28.07 08:50:11 mahal28.07 07:23:44 niederlande